#�ϑ�����,���ϕ���,���ϕ���,�ő啗��,�ő啗����������,�ő�u�ԕ���,�ő�u�ԕ�����������
#(�N����),(m/s)   ,(16����),(m/s)   ,(16����)        ,(m/s)       ,(16����)            
2017/11/11 0:01,1.1,12,1.2,8,1.1,13
2017/11/11 0:02,1.1,12,1.1,8,1.5,13
2017/11/11 0:03,1.1,12,1.1,8,1.8,13
2017/11/11 0:04,0.9,12,1.1,9,1.4,13
2017/11/11 0:05,0.9,13,0.9,9,1.6,1
2017/11/11 0:06,0.9,13,0.9,10,0.8,1
2017/11/11 0:07,0.8,13,0.8,10,1.9,11
2017/11/11 0:08,0.9,13,0.9,10,3,10
2017/11/11 0:09,1.1,13,1.1,11,3.7,10
2017/11/11 0:10,1.2,12,1.2,11,3.2,10
2017/11/11 0:11,1.3,12,1.3,12,2.1,12
2017/11/11 0:12,1.3,13,1.3,12,1,15
2017/11/11 0:13,1.3,13,1.3,12,2.4,14
2017/11/11 0:14,1.4,12,1.4,13,3.2,12
2017/11/11 0:15,1.7,12,1.7,12,4.7,12
2017/11/11 0:16,2,12,2,12,4.5,12
2017/11/11 0:17,2.2,12,2.2,12,4.8,11
2017/11/11 0:18,2.3,12,2.3,12,4.1,12
2017/11/11 0:19,2.3,12,2.3,12,2.7,13
2017/11/11 0:20,2.1,12,2.2,12,1.8,12
2017/11/11 0:21,2,12,2.1,12,1,9
2017/11/11 0:22,2,12,2,12,1,8
2017/11/11 0:23,1.9,11,2,12,1,9
2017/11/11 0:24,1.7,11,1.9,12,0.3,15
2017/11/11 0:25,1.5,11,1.7,12,2.2,15
2017/11/11 0:26,1.4,11,1.4,12,4.1,14
2017/11/11 0:27,1.4,12,1.4,12,3.3,14
2017/11/11 0:28,1.3,12,1.4,12,3.1,14
2017/11/11 0:29,1.3,12,1.3,12,2.5,13
2017/11/11 0:30,1.3,13,1.3,12,2.6,8
2017/11/11 0:31,1.4,13,1.4,12,3.2,8
2017/11/11 0:32,1.5,13,1.5,12,2.4,7
2017/11/11 0:33,1.5,13,1.5,11,2.6,7
2017/11/11 0:34,1.6,12,1.6,11,1.5,8
2017/11/11 0:35,1.5,11,1.6,13,0.9,12
2017/11/11 0:36,1.3,11,1.5,13,1.9,13
2017/11/11 0:37,1.3,11,1.3,13,2.5,12
2017/11/11 0:38,1.2,11,1.2,13,1.8,16
2017/11/11 0:39,1.3,10,1.3,13,2.9,1
2017/11/11 0:40,1.2,11,1.3,13,1.8,1
2017/11/11 0:41,1.1,11,1.2,13,1,7
2017/11/11 0:42,1,5,1.1,13,0.9,9
2017/11/11 0:43,1,16,1,13,1.6,15
2017/11/11 0:44,1.1,15,1.1,12,2.4,15
2017/11/11 0:45,1.2,16,1.2,11,2.7,16
2017/11/11 0:46,1.3,16,1.3,11,2.6,16
2017/11/11 0:47,1.2,16,1.3,10,1.8,13
2017/11/11 0:48,1.1,16,1.1,10,1.1,11
2017/11/11 0:49,0.9,15,1.1,10,0.3,7
2017/11/11 0:50,0.9,16,0.9,16,1.5,3
2017/11/11 0:51,1,16,1,16,1.5,1
2017/11/11 0:52,0.9,15,0.9,16,0.1,8
2017/11/11 0:53,0.9,15,0.9,16,0.1,7
2017/11/11 0:54,0.7,14,0.9,16,0.6,10
2017/11/11 0:55,0.6,13,0.7,16,1,9
2017/11/11 0:56,0.5,11,0.5,16,1.3,9
2017/11/11 0:57,0.4,10,0.5,16,1.3,9
2017/11/11 0:58,0.5,9,0.5,16,2.1,9
2017/11/11 0:59,0.5,10,0.5,15,2.2,9
2017/11/11 1:00,0.5,10,0.6,15,1.4,8
2017/11/11 1:01,0.5,9,0.5,16,1.1,9
2017/11/11 1:02,0.6,9,0.6,15,1.3,10
2017/11/11 1:03,0.6,9,0.6,15,0.6,9
2017/11/11 1:04,0.6,9,0.6,14,0.3,4
2017/11/11 1:05,0.5,9,0.6,10,0.3,3
2017/11/11 1:06,0.5,8,0.5,10,0.4,2
2017/11/11 1:07,0.4,8,0.5,10,0.1,11
2017/11/11 1:08,0.4,7,0.5,10,2.1,8
2017/11/11 1:09,0.5,7,0.5,10,1.9,8
2017/11/11 1:10,0.4,6,0.5,9,0.5,8
2017/11/11 1:11,0.3,6,0.4,9,0,7
2017/11/11 1:12,0.3,6,0.3,9,1,9
2017/11/11 1:13,0.4,7,0.4,9,1,9
2017/11/11 1:14,0.5,7,0.5,9,0.9,11
2017/11/11 1:15,0.6,8,0.6,8,1.5,1
2017/11/11 1:16,0.6,8,0.6,8,1.5,2
2017/11/11 1:17,0.7,8,0.7,8,1.1,2
2017/11/11 1:18,0.7,5,0.7,8,1.6,3
2017/11/11 1:19,0.7,3,0.7,8,1.4,3
2017/11/11 1:20,0.7,3,0.7,8,0.8,4
2017/11/11 1:21,0.7,2,0.7,8,0.5,8
2017/11/11 1:22,0.8,2,0.8,2,3,9
2017/11/11 1:23,0.8,2,0.8,2,1,7
2017/11/11 1:24,0.7,3,0.8,2,0.8,4
2017/11/11 1:25,0.7,4,0.7,2,1.4,3
2017/11/11 1:26,0.7,4,0.7,2,1.5,4
2017/11/11 1:27,0.8,4,0.8,2,2.5,16
2017/11/11 1:28,0.9,3,0.9,4,3.2,1
2017/11/11 1:29,0.9,3,0.9,4,1.8,14
2017/11/11 1:30,1,2,1,2,2.4,11
2017/11/11 1:31,1.1,2,1.1,2,2.4,11
2017/11/11 1:32,1,1,1.1,2,2.2,9
2017/11/11 1:33,1,2,1,2,1.5,4
2017/11/11 1:34,1.1,2,1.1,2,2.2,5
2017/11/11 1:35,1.2,2,1.2,2,1.8,4
2017/11/11 1:36,1.1,2,1.2,2,1.1,3
2017/11/11 1:37,0.9,1,1.1,2,0.1,11
2017/11/11 1:38,0.8,3,0.9,2,0.3,5
2017/11/11 1:39,0.7,6,0.8,2,1.8,10
2017/11/11 1:40,0.7,6,0.8,2,1.5,8
2017/11/11 1:41,0.6,5,0.7,2,0.9,4
2017/11/11 1:42,0.7,5,0.7,2,1.1,3
2017/11/11 1:43,0.7,5,0.7,2,1.1,4
2017/11/11 1:44,0.5,4,0.7,2,0.8,3
2017/11/11 1:45,0.6,5,0.6,2,2.4,11
2017/11/11 1:46,0.7,7,0.7,2,2.5,9
2017/11/11 1:47,0.9,7,0.9,1,1.9,10
2017/11/11 1:48,0.9,8,0.9,7,0.9,8
2017/11/11 1:49,0.9,8,0.9,7,0.8,9
2017/11/11 1:50,0.8,8,0.9,7,0.6,11
2017/11/11 1:51,0.9,9,0.9,7,1.6,9
2017/11/11 1:52,0.9,10,0.9,7,1.6,9
2017/11/11 1:53,0.9,10,0.9,7,1.1,8
2017/11/11 1:54,0.9,10,0.9,7,0.8,9
2017/11/11 1:55,0.7,10,0.9,7,0.1,3
2017/11/11 1:56,0.5,10,0.7,7,0,16
2017/11/11 1:57,0.4,10,0.5,7,0.1,6
2017/11/11 1:58,0.3,10,0.4,8,0.5,9
2017/11/11 1:59,0.3,10,0.3,8,0.3,11
2017/11/11 2:00,0.3,9,0.3,9,0.6,7
2017/11/11 2:01,0.3,9,0.3,9,1.5,8
2017/11/11 2:02,0.3,9,0.3,10,1.6,8
2017/11/11 2:03,0.3,9,0.3,10,1.6,9
2017/11/11 2:04,0.3,9,0.3,10,1.5,10
2017/11/11 2:05,0.4,9,0.4,10,1.4,9
2017/11/11 2:06,0.4,9,0.4,10,1.4,1
2017/11/11 2:07,0.6,9,0.6,9,2,1
2017/11/11 2:08,0.8,10,0.8,10,2.5,1
2017/11/11 2:09,1,12,1,11,2.7,16
2017/11/11 2:10,1.2,14,1.2,14,3.1,16
2017/11/11 2:11,1.4,15,1.4,15,2.7,16
2017/11/11 2:12,1.5,16,1.5,16,2.7,1
2017/11/11 2:13,1.6,16,1.6,16,2.1,16
2017/11/11 2:14,1.6,1,1.6,16,1.6,2
2017/11/11 2:15,1.7,1,1.7,1,2,2
2017/11/11 2:16,1.8,1,1.8,1,1.5,2
2017/11/11 2:17,1.6,1,1.8,1,0.5,2
2017/11/11 2:18,1.4,2,1.6,1,0.1,3
2017/11/11 2:19,1.2,2,1.4,1,0.1,4
2017/11/11 2:20,1,2,1.2,1,0.5,4
2017/11/11 2:21,0.8,3,1,1,0.3,3
2017/11/11 2:22,0.6,3,0.8,1,0.1,10
2017/11/11 2:23,0.4,3,0.5,1,0.5,9
2017/11/11 2:24,0.3,4,0.4,1,1,8
2017/11/11 2:25,0.2,4,0.3,1,0.8,7
2017/11/11 2:26,0.2,5,0.2,1,2.9,9
2017/11/11 2:27,0.4,6,0.4,1,3.5,9
2017/11/11 2:28,0.4,7,0.4,2,1.8,10
2017/11/11 2:29,0.6,8,0.6,2,2.1,11
2017/11/11 2:30,0.7,9,0.7,2,2.1,10
2017/11/11 2:31,0.8,10,0.8,3,1.3,11
2017/11/11 2:32,1,10,1,10,2,11
2017/11/11 2:33,1.1,10,1.1,10,1.6,11
2017/11/11 2:34,1.1,11,1.1,10,1.1,11
2017/11/11 2:35,1.1,11,1.1,10,1.3,12
2017/11/11 2:36,1.2,11,1.2,11,1.8,12
2017/11/11 2:37,1.2,12,1.2,11,1.8,14
2017/11/11 2:38,1.2,12,1.2,11,1.6,13
2017/11/11 2:39,1.2,12,1.2,11,1.5,15
2017/11/11 2:40,1.1,13,1.2,11,1,16
2017/11/11 2:41,1,13,1.1,11,0.3,15
2017/11/11 2:42,0.8,13,0.9,11,0.6,7
2017/11/11 2:43,0.7,13,0.8,11,0.6,6
2017/11/11 2:44,0.7,12,0.7,11,0.4,10
2017/11/11 2:45,0.6,12,0.7,11,0.1,6
2017/11/11 2:46,0.5,10,0.6,11,0.8,9
2017/11/11 2:47,0.4,9,0.5,12,0.5,9
2017/11/11 2:48,0.3,9,0.4,12,0,9
2017/11/11 2:49,0.2,9,0.3,12,0,12
2017/11/11 2:50,0.1,8,0.2,13,0.1,1
2017/11/11 2:51,0.1,9,0.1,13,0.1,1
2017/11/11 2:52,0.1,10,0.1,13,0.3,1
2017/11/11 2:53,0.1,11,0.1,12,0.1,1
2017/11/11 2:54,0.1,12,0.1,12,0.1,12
2017/11/11 2:55,0.1,13,0.1,11,0.8,12
2017/11/11 2:56,0.1,13,0.1,10,0.8,13
2017/11/11 2:57,0.2,14,0.2,9,1,15
2017/11/11 2:58,0.2,15,0.2,9,1.1,16
2017/11/11 2:59,0.2,15,0.2,9,0.9,16
2017/11/11 3:00,0.3,15,0.3,15,1.4,8
2017/11/11 3:01,0.3,15,0.3,15,1.5,8
2017/11/11 3:02,0.3,15,0.3,15,0.3,11
2017/11/11 3:03,0.3,13,0.3,15,0,8
2017/11/11 3:04,0.3,5,0.3,15,0.1,5
2017/11/11 3:05,0.3,5,0.3,15,0.5,6
2017/11/11 3:06,0.3,6,0.3,15,1,9
2017/11/11 3:07,0.3,6,0.4,6,1.3,8
2017/11/11 3:08,0.4,7,0.4,6,1.5,8
2017/11/11 3:09,0.4,7,0.4,6,1.3,9
2017/11/11 3:10,0.4,8,0.4,6,1.1,9
2017/11/11 3:11,0.4,8,0.4,6,0.1,15
2017/11/11 3:12,0.4,9,0.4,6,0.8,12
2017/11/11 3:13,0.4,10,0.4,6,0.9,13
2017/11/11 3:14,0.5,10,0.5,10,1,12
2017/11/11 3:15,0.6,11,0.6,10,1.5,13
2017/11/11 3:16,0.7,11,0.7,11,1.6,13
2017/11/11 3:17,0.8,12,0.8,12,1.4,13
2017/11/11 3:18,0.7,12,0.8,12,1.1,13
2017/11/11 3:19,0.7,12,0.8,12,0.9,13
2017/11/11 3:20,0.7,13,0.7,12,0.6,13
2017/11/11 3:21,0.8,13,0.8,12,0.8,14
2017/11/11 3:22,0.8,13,0.8,12,0.5,12
2017/11/11 3:23,0.8,13,0.8,12,0.8,13
2017/11/11 3:24,0.7,13,0.8,12,0.6,12
2017/11/11 3:25,0.6,13,0.7,12,0.6,11
2017/11/11 3:26,0.5,12,0.6,12,1.3,10
2017/11/11 3:27,0.5,12,0.5,12,1.3,11
2017/11/11 3:28,0.5,12,0.5,12,1,16
2017/11/11 3:29,0.5,13,0.5,13,1.1,16
2017/11/11 3:30,0.4,13,0.5,13,0.6,16
2017/11/11 3:31,0.4,12,0.4,13,0.8,10
2017/11/11 3:32,0.4,12,0.4,13,0.9,9
2017/11/11 3:33,0.4,12,0.4,13,1.6,9
2017/11/11 3:34,0.4,12,0.4,13,2.2,11
2017/11/11 3:35,0.5,12,0.5,12,2.2,9
2017/11/11 3:36,0.6,12,0.6,12,1.6,10
2017/11/11 3:37,0.6,12,0.6,12,1.8,11
2017/11/11 3:38,0.6,11,0.6,12,1.4,10
2017/11/11 3:39,0.5,10,0.6,12,0.5,12
2017/11/11 3:40,0.6,10,0.6,12,1.4,8
2017/11/11 3:41,0.6,10,0.6,12,1.5,10
2017/11/11 3:42,0.7,10,0.7,10,1.1,10
2017/11/11 3:43,0.7,10,0.7,10,1.6,9
2017/11/11 3:44,0.7,10,0.7,10,1.5,10
2017/11/11 3:45,0.7,10,0.7,10,2,9
2017/11/11 3:46,0.7,10,0.7,10,1.9,10
2017/11/11 3:47,0.8,10,0.8,10,2.1,10
2017/11/11 3:48,0.9,10,0.9,10,1.5,11
2017/11/11 3:49,1,10,1,10,2.1,10
2017/11/11 3:50,0.9,10,1,10,0.9,10
2017/11/11 3:51,1,10,1,10,1.9,10
2017/11/11 3:52,1.1,10,1.1,10,2.5,10
2017/11/11 3:53,1.2,10,1.2,10,2,9
2017/11/11 3:54,1.2,10,1.2,10,3,9
2017/11/11 3:55,1.1,10,1.2,10,1,10
2017/11/11 3:56,1.1,10,1.2,10,2,12
2017/11/11 3:57,1.1,10,1.1,10,1,11
2017/11/11 3:58,1.1,10,1.1,10,3.1,8
2017/11/11 3:59,1.1,10,1.1,10,3.7,9
2017/11/11 4:00,1.3,10,1.3,10,3.5,10
2017/11/11 4:01,1.3,10,1.3,10,4.5,10
2017/11/11 4:02,1.3,10,1.3,10,3.1,9
2017/11/11 4:03,1.2,10,1.3,10,1.1,6
2017/11/11 4:04,1.2,10,1.2,10,3,8
2017/11/11 4:05,1.3,10,1.3,10,2.7,15
2017/11/11 4:06,1.3,10,1.3,10,2.6,1
2017/11/11 4:07,1.4,9,1.4,9,2.2,8
2017/11/11 4:08,1.4,9,1.4,9,4.4,1
2017/11/11 4:09,1.4,7,1.5,9,2.5,4
2017/11/11 4:10,1.4,7,1.4,9,2.6,8
2017/11/11 4:11,1.4,6,1.4,9,3,8
2017/11/11 4:12,1.4,6,1.4,9,4.3,9
2017/11/11 4:13,1.5,6,1.5,9,2.7,9
2017/11/11 4:14,1.5,7,1.5,9,2.5,11
2017/11/11 4:15,1.5,7,1.6,7,2.4,1
2017/11/11 4:16,1.6,8,1.6,7,6.2,12
2017/11/11 4:17,1.7,10,1.7,9,5.2,13
2017/11/11 4:18,1.9,10,1.9,10,6.1,12
2017/11/11 4:19,1.9,10,1.9,10,4.8,6
2017/11/11 4:20,1.9,10,1.9,10,2.5,3
2017/11/11 4:21,2,10,2,10,4.7,8
2017/11/11 4:22,2,10,2,10,4.3,4
2017/11/11 4:23,2,1,2.1,10,3.3,3
2017/11/11 4:24,2.1,16,2.1,10,3.9,15
2017/11/11 4:25,2.3,15,2.3,16,5.7,14
2017/11/11 4:26,2.5,15,2.5,14,5.7,13
2017/11/11 4:27,2.6,15,2.6,14,5.6,14
2017/11/11 4:28,2.7,15,2.7,15,7,14
2017/11/11 4:29,2.9,15,2.9,15,10.8,12
2017/11/11 4:30,3.5,14,3.5,14,13,12
2017/11/11 4:31,3.9,15,3.9,15,9.8,15
2017/11/11 4:32,4.2,14,4.2,14,12.3,12
2017/11/11 4:33,4.7,14,4.7,14,12.6,13
2017/11/11 4:34,5.5,14,5.5,14,13.8,16
2017/11/11 4:35,5.9,14,5.9,14,14.2,1
2017/11/11 4:36,5.8,14,5.9,14,10.2,15
2017/11/11 4:37,6.4,15,6.4,15,14.1,14
2017/11/11 4:38,6.8,15,6.8,15,13.5,14
2017/11/11 4:39,6.9,15,7.1,15,8.7,16
2017/11/11 4:40,6.6,15,6.8,15,6,16
2017/11/11 4:41,6.4,15,6.6,15,7.2,16
2017/11/11 4:42,6.2,15,6.4,15,7.7,16
2017/11/11 4:43,6,16,6.2,15,7.2,16
2017/11/11 4:44,5.3,16,5.9,15,6,13
2017/11/11 4:45,5.1,16,5.3,15,9.3,1
2017/11/11 4:46,5.2,16,5.2,15,8.5,16
2017/11/11 4:47,4.6,16,5.1,15,8.3,14
2017/11/11 4:48,4.3,15,4.5,15,9.2,14
2017/11/11 4:49,4.2,15,4.2,15,9.2,15
2017/11/11 4:50,4.3,15,4.4,15,9.2,15
2017/11/11 4:51,4.3,15,4.3,15,11.3,13
2017/11/11 4:52,4.6,15,4.6,15,7.6,14
2017/11/11 4:53,4.6,15,4.6,16,6.7,14
2017/11/11 4:54,4.5,15,4.6,16,5.2,15
2017/11/11 4:55,4.4,15,4.5,16,7.4,15
2017/11/11 4:56,4.4,15,4.4,16,10.2,15
2017/11/11 4:57,4.5,14,4.5,15,7.9,13
2017/11/11 4:58,4.5,14,4.6,15,9.9,12
2017/11/11 4:59,4.5,14,4.6,15,8.9,13
2017/11/11 5:00,4.5,14,4.5,15,9.2,13
2017/11/11 5:01,4.6,14,4.6,15,9.8,13
2017/11/11 5:02,4.6,14,4.6,15,9.7,13
2017/11/11 5:03,4.7,14,4.7,14,10.5,15
2017/11/11 5:04,5,14,5,14,10.1,13
2017/11/11 5:05,5.1,13,5.1,13,5.7,15
2017/11/11 5:06,4.9,13,5.1,13,5.5,11
2017/11/11 5:07,4.7,13,4.9,13,3.7,12
2017/11/11 5:08,4.4,13,4.6,13,5,13
2017/11/11 5:09,4.4,13,4.5,13,6.3,11
2017/11/11 5:10,4.2,13,4.4,13,6.2,12
2017/11/11 5:11,3.9,13,4.2,13,6.8,12
2017/11/11 5:12,3.6,12,3.9,13,5.7,10
2017/11/11 5:13,3.3,12,3.6,13,5.6,9
2017/11/11 5:14,2.9,12,3.3,13,3.7,13
2017/11/11 5:15,2.8,13,2.9,13,3.8,1
2017/11/11 5:16,2.8,13,2.8,13,4.7,16
2017/11/11 5:17,2.7,13,2.8,13,3,16
2017/11/11 5:18,2.6,14,2.7,13,2.9,16
2017/11/11 5:19,2.6,14,2.6,13,7.8,14
2017/11/11 5:20,2.7,15,2.7,13,7.1,1
2017/11/11 5:21,2.7,15,2.8,13,6.1,16
2017/11/11 5:22,2.7,16,2.8,12,4.4,1
2017/11/11 5:23,2.7,16,2.7,12,4.4,1
2017/11/11 5:24,2.9,16,2.9,12,6.4,16
2017/11/11 5:25,3.1,16,3.1,16,6.2,16
2017/11/11 5:26,3.2,16,3.2,16,7.7,15
2017/11/11 5:27,3.8,16,3.8,16,11.9,16
2017/11/11 5:28,4.1,16,4.1,16,8.1,16
2017/11/11 5:29,4.2,16,4.2,16,8.1,14
2017/11/11 5:30,4.2,16,4.3,16,6.9,15
2017/11/11 5:31,4.1,16,4.1,16,4.8,14
2017/11/11 5:32,4.2,15,4.2,16,5.5,16
2017/11/11 5:33,4.3,15,4.3,16,5.6,14
2017/11/11 5:34,4.2,15,4.3,16,5.5,14
2017/11/11 5:35,4.1,15,4.2,16,5.1,15
2017/11/11 5:36,4,15,4.1,16,6.3,16
2017/11/11 5:37,3.8,15,4,16,7.2,15
2017/11/11 5:38,3.8,15,3.9,16,8.1,16
2017/11/11 5:39,4,15,4,16,12.7,15
2017/11/11 5:40,4.3,15,4.3,15,10.7,16
2017/11/11 5:41,4.4,15,4.4,15,7.6,1
2017/11/11 5:42,4.6,16,4.6,16,7.9,16
2017/11/11 5:43,4.8,16,4.8,16,8.3,1
2017/11/11 5:44,5.2,16,5.2,16,11.3,15
2017/11/11 5:45,5.7,16,5.7,16,11.5,15
2017/11/11 5:46,6.2,16,6.2,16,11.9,16
2017/11/11 5:47,6.3,16,6.3,16,10.7,16
2017/11/11 5:48,6.7,16,6.7,16,11,16
2017/11/11 5:49,6.7,16,6.7,16,9,16
2017/11/11 5:50,6.7,16,6.7,16,12.7,15
2017/11/11 5:51,7,16,7,16,13.1,15
2017/11/11 5:52,7.1,16,7.1,16,10.8,15
2017/11/11 5:53,7.2,15,7.3,16,10.5,15
2017/11/11 5:54,7.1,15,7.2,16,10,14
2017/11/11 5:55,6.9,15,7.1,16,9,15
2017/11/11 5:56,6.4,15,6.8,16,7.2,16
2017/11/11 5:57,6.2,15,6.4,16,5.5,16
2017/11/11 5:58,6,15,6.2,16,13.3,15
2017/11/11 5:59,6.1,15,6.1,16,11.4,16
2017/11/11 6:00,5.9,15,6.1,16,8.4,16
2017/11/11 6:01,5.8,15,5.9,16,13.2,15
2017/11/11 6:02,5.9,16,6,16,12.7,16
2017/11/11 6:03,6,16,6,15,11.1,15
2017/11/11 6:04,6.1,16,6.1,15,10.2,16
2017/11/11 6:05,6,16,6.1,15,8.2,16
2017/11/11 6:06,6.2,16,6.2,15,10,16
2017/11/11 6:07,6.3,16,6.3,16,7.8,14
2017/11/11 6:08,6.3,16,6.4,16,8.3,15
2017/11/11 6:09,6.3,16,6.3,16,12.5,15
2017/11/11 6:10,6.1,16,6.3,16,9.5,16
2017/11/11 6:11,5.9,16,6,16,8.6,16
2017/11/11 6:12,5.8,16,5.9,16,10,15
2017/11/11 6:13,5.5,16,5.8,16,9.5,16
2017/11/11 6:14,5.3,16,5.5,16,7.1,16
2017/11/11 6:15,5.4,16,5.4,16,9.9,16
2017/11/11 6:16,5.4,16,5.5,16,9.5,16
2017/11/11 6:17,5.6,16,5.6,16,12.2,16
2017/11/11 6:18,5.5,16,5.6,16,10.5,1
2017/11/11 6:19,5.5,16,5.5,16,12.5,1
2017/11/11 6:20,5.6,16,5.6,16,12.2,14
2017/11/11 6:21,6,16,6,16,13.9,16
2017/11/11 6:22,5.6,16,5.9,16,9.7,14
2017/11/11 6:23,5.5,16,5.7,16,9.3,1
2017/11/11 6:24,5.7,16,5.7,16,9.2,1
2017/11/11 6:25,5.7,16,5.7,16,9.7,16
2017/11/11 6:26,5.6,16,5.7,16,8.4,14
2017/11/11 6:27,5.6,15,5.8,16,9.8,14
2017/11/11 6:28,5.4,15,5.6,16,7.8,15
2017/11/11 6:29,5.2,15,5.4,16,6.7,13
2017/11/11 6:30,5,15,5.2,16,4.8,15
2017/11/11 6:31,4.8,15,4.9,16,10.1,15
2017/11/11 6:32,5.1,15,5.1,16,9.9,15
2017/11/11 6:33,5.1,15,5.2,16,8.4,16
2017/11/11 6:34,5,15,5.1,16,10.7,15
2017/11/11 6:35,4.9,15,5,16,7.7,15
2017/11/11 6:36,4.9,15,5,16,8.5,15
2017/11/11 6:37,4.6,15,4.9,15,5.7,16
2017/11/11 6:38,4.8,15,4.8,15,9.4,15
2017/11/11 6:39,4.5,15,4.8,15,5.5,14
2017/11/11 6:40,4.5,15,4.5,15,3.2,10
2017/11/11 6:41,4,15,4.5,15,2.9,15
2017/11/11 6:42,3.5,15,4,15,2.2,11
2017/11/11 6:43,3.3,15,3.4,15,2,12
2017/11/11 6:44,2.8,14,3.2,15,2.4,8
2017/11/11 6:45,2.4,14,2.8,15,1.9,9
2017/11/11 6:46,1.9,13,2.4,15,3.1,8
2017/11/11 6:47,1.6,12,1.9,15,2.2,9
2017/11/11 6:48,1.2,11,1.6,15,1.3,9
2017/11/11 6:49,1.1,10,1.2,15,1.5,9
2017/11/11 6:50,0.9,10,1,15,1,15
2017/11/11 6:51,0.9,10,0.9,15,3.5,15
2017/11/11 6:52,0.8,9,0.9,15,2,8
2017/11/11 6:53,0.9,7,0.9,14,2,7
2017/11/11 6:54,1.2,6,1.2,14,5.1,2
2017/11/11 6:55,1.4,5,1.4,14,4.3,2
2017/11/11 6:56,1.3,4,1.4,13,1.3,2
2017/11/11 6:57,1.4,3,1.4,12,1.4,6
2017/11/11 6:58,1.5,3,1.5,3,3.5,3
2017/11/11 6:59,1.6,2,1.6,2,3.2,16
2017/11/11 7:00,1.6,3,1.6,2,2,16
2017/11/11 7:01,1.6,4,1.6,2,4.4,3
2017/11/11 7:02,1.6,4,1.7,4,2.9,5
2017/11/11 7:03,1.6,3,1.6,4,2,16
2017/11/11 7:04,1.4,3,1.5,4,3.2,3
2017/11/11 7:05,1.4,3,1.4,4,2.9,2
2017/11/11 7:06,1.4,3,1.4,4,2,3
2017/11/11 7:07,1.4,3,1.4,4,1.8,5
2017/11/11 7:08,1.4,3,1.4,4,3.1,2
2017/11/11 7:09,1.5,3,1.5,4,3.2,3
2017/11/11 7:10,1.7,3,1.7,4,3.7,16
2017/11/11 7:11,1.8,2,1.8,2,4.2,16
2017/11/11 7:12,2,2,2,2,4.5,1
2017/11/11 7:13,2.1,2,2.1,2,4.8,3
2017/11/11 7:14,2.2,2,2.2,2,3.5,11
2017/11/11 7:15,2.1,2,2.2,2,2.6,10
2017/11/11 7:16,2.2,2,2.2,2,2.1,5
2017/11/11 7:17,2.2,3,2.2,2,2.2,6
2017/11/11 7:18,2.2,3,2.2,2,3.9,3
2017/11/11 7:19,2.3,3,2.3,3,5,2
2017/11/11 7:20,2.3,3,2.3,3,5,1
2017/11/11 7:21,2.3,3,2.3,3,3.7,1
2017/11/11 7:22,2.2,3,2.3,3,3,16
2017/11/11 7:23,2.2,3,2.2,3,6.2,1
2017/11/11 7:24,2.5,2,2.5,2,7.2,16
2017/11/11 7:25,2.7,2,2.7,2,6.5,16
2017/11/11 7:26,2.8,1,2.8,2,3.5,14
2017/11/11 7:27,2.8,1,2.8,2,3.1,2
2017/11/11 7:28,2.7,1,2.8,2,2,15
2017/11/11 7:29,2.6,16,2.7,2,3.6,16
2017/11/11 7:30,2.4,16,2.5,2,2.7,14
2017/11/11 7:31,2.4,16,2.4,2,3.6,12
2017/11/11 7:32,2.4,15,2.4,2,3.5,12
2017/11/11 7:33,2.1,15,2.3,2,2.4,16
2017/11/11 7:34,1.8,15,2.1,2,3,16
2017/11/11 7:35,1.8,15,1.8,2,10.1,2
2017/11/11 7:36,2.4,15,2.4,1,14.3,16
2017/11/11 7:37,2.8,15,2.8,1,9.3,16
2017/11/11 7:38,2.8,15,2.8,15,4.3,15
2017/11/11 7:39,2.8,15,2.8,15,3.9,1
2017/11/11 7:40,3,16,3,16,6.1,16
2017/11/11 7:41,3.4,16,3.4,16,8.6,16
2017/11/11 7:42,3.4,16,3.4,16,5.6,11
2017/11/11 7:43,3.5,16,3.5,16,3.7,1
2017/11/11 7:44,3.6,16,3.6,16,6.2,2
2017/11/11 7:45,3.5,16,3.6,16,5.6,1
2017/11/11 7:46,2.8,16,3.4,16,5.8,16
2017/11/11 7:47,2.7,16,2.8,16,7.5,16
2017/11/11 7:48,2.8,16,2.8,16,5.4,16
2017/11/11 7:49,3,16,3,16,6.4,16
2017/11/11 7:50,3.1,16,3.1,16,8.2,13
2017/11/11 7:51,2.9,16,3.1,16,7,14
2017/11/11 7:52,2.8,16,2.8,16,3.7,1
2017/11/11 7:53,2.9,16,2.9,16,5,2
2017/11/11 7:54,3.4,16,3.4,16,10.2,16
2017/11/11 7:55,3.6,16,3.6,16,8.2,16
2017/11/11 7:56,3.7,16,3.7,16,7.4,2
2017/11/11 7:57,3.6,16,3.7,16,9.3,16
2017/11/11 7:58,3.8,16,3.8,16,8.5,16
2017/11/11 7:59,3.6,16,3.8,16,4.7,16
2017/11/11 8:00,3.3,16,3.6,16,3.3,13
2017/11/11 8:01,3.2,16,3.2,16,6.2,15
2017/11/11 8:02,3.3,16,3.3,16,5.2,12
2017/11/11 8:03,3.3,16,3.3,16,4.1,11
2017/11/11 8:04,2.9,15,3.3,16,4.7,13
2017/11/11 8:05,2.9,15,2.9,16,5.6,13
2017/11/11 8:06,2.8,14,2.9,16,4.3,11
2017/11/11 8:07,2.6,13,2.8,16,2.1,11
2017/11/11 8:08,2.4,13,2.6,16,3,7
2017/11/11 8:09,2.3,13,2.3,16,3.1,2
2017/11/11 8:10,2.2,12,2.3,16,2.5,4
2017/11/11 8:11,2,12,2.2,16,0.5,3
2017/11/11 8:12,1.8,12,2,16,1.3,5
2017/11/11 8:13,1.7,8,1.8,16,3.2,4
2017/11/11 8:14,1.5,7,1.7,15,1.1,10
2017/11/11 8:15,1.3,7,1.5,15,3.7,8
2017/11/11 8:16,1.3,6,1.3,14,5.2,8
2017/11/11 8:17,1.4,6,1.4,13,3.1,6
2017/11/11 8:18,1.4,6,1.4,13,2.1,7
2017/11/11 8:19,1.2,7,1.4,13,0.8,7
2017/11/11 8:20,1.3,6,1.3,12,2.6,4
2017/11/11 8:21,1.5,6,1.5,12,4.3,2
2017/11/11 8:22,1.6,6,1.6,12,3.6,15
2017/11/11 8:23,1.7,6,1.7,7,4.4,16
2017/11/11 8:24,1.8,4,1.8,5,4.3,16
2017/11/11 8:25,1.7,2,1.8,5,2.2,15
2017/11/11 8:26,1.4,1,1.7,5,0.6,4
2017/11/11 8:27,1.3,16,1.4,5,1.3,14
2017/11/11 8:28,1.4,15,1.4,5,2,11
2017/11/11 8:29,1.4,16,1.4,5,2.5,9
2017/11/11 8:30,1.6,15,1.6,5,4.1,9
2017/11/11 8:31,1.5,13,1.6,5,2.9,9
2017/11/11 8:32,1.4,12,1.5,5,1.8,7
2017/11/11 8:33,1.3,10,1.4,5,2.2,9
2017/11/11 8:34,1.1,10,1.3,4,1.4,10
2017/11/11 8:35,1.1,10,1.1,2,1.8,12
2017/11/11 8:36,1.3,10,1.3,15,3.8,11
2017/11/11 8:37,1.3,10,1.3,15,1.8,9
2017/11/11 8:38,1.4,9,1.4,15,2.7,2
2017/11/11 8:39,1.7,9,1.7,9,7.7,1
2017/11/11 8:40,1.8,11,1.8,11,6.1,15
2017/11/11 8:41,1.8,14,1.8,11,3.6,12
2017/11/11 8:42,2.2,14,2.2,14,9,15
2017/11/11 8:43,2.2,14,2.2,14,3.7,15
2017/11/11 8:44,2.3,15,2.3,14,3.5,13
2017/11/11 8:45,2.6,15,2.6,15,5.2,1
2017/11/11 8:46,2.6,16,2.6,15,5.7,2
2017/11/11 8:47,2.8,16,2.8,16,5.2,15
2017/11/11 8:48,2.8,16,2.8,16,4.7,15
2017/11/11 8:49,2.5,16,2.8,16,2,6
2017/11/11 8:50,2.3,16,2.5,16,1.9,8
2017/11/11 8:51,2.2,16,2.3,16,2.5,12
2017/11/11 8:52,1.8,1,2.2,16,2.2,1
2017/11/11 8:53,1.9,1,2,16,5.2,9
2017/11/11 8:54,1.8,16,1.9,16,1.8,14
2017/11/11 8:55,1.6,1,1.8,16,2.1,6
2017/11/11 8:56,1.4,9,1.6,16,1.4,6
2017/11/11 8:57,1.2,8,1.4,16,2,9
2017/11/11 8:58,1.2,8,1.2,16,1.4,3
2017/11/11 8:59,1.2,8,1.2,16,2.4,2
2017/11/11 9:00,1.7,5,1.7,16,10.2,1
2017/11/11 9:01,2,4,2,16,11,1
2017/11/11 9:02,2.2,4,2.2,4,4.2,15
2017/11/11 9:03,2.2,3,2.2,4,3.5,1
2017/11/11 9:04,2.4,3,2.4,3,4.4,1
2017/11/11 9:05,2.5,2,2.5,3,5.4,16
2017/11/11 9:06,2.6,1,2.6,2,3.5,14
2017/11/11 9:07,2.7,1,2.7,1,3.9,10
2017/11/11 9:08,2.9,1,2.9,1,4.5,8
2017/11/11 9:09,2.9,16,2.9,1,2.9,9
2017/11/11 9:10,2.4,16,2.8,1,3.3,1
2017/11/11 9:11,2.2,16,2.4,1,5,16
2017/11/11 9:12,2.3,16,2.3,1,5.4,16
2017/11/11 9:13,2.4,14,2.4,1,5.1,11
2017/11/11 9:14,2.6,14,2.6,1,6.7,1
2017/11/11 9:15,2.8,15,2.8,1,9.1,2
2017/11/11 9:16,3,16,3,15,11.8,16
2017/11/11 9:17,3.5,16,3.5,16,11.7,2
2017/11/11 9:18,4.2,16,4.2,16,13.9,16
2017/11/11 9:19,4.7,16,4.7,16,13,15
2017/11/11 9:20,4.8,16,4.8,16,4.8,15
2017/11/11 9:21,4.8,16,4.8,16,4.2,1
2017/11/11 9:22,4.6,16,4.8,16,4.3,1
2017/11/11 9:23,4.5,16,4.6,16,2.9,12
2017/11/11 9:24,4.3,16,4.4,16,3.9,12
2017/11/11 9:25,4.2,16,4.2,16,6.8,16
2017/11/11 9:26,4.2,16,4.3,16,6.2,1
2017/11/11 9:27,3.9,16,4.2,16,6.8,16
2017/11/11 9:28,3.3,16,3.8,16,7.7,16
2017/11/11 9:29,3.3,16,3.3,16,10,1
2017/11/11 9:30,3.4,16,3.4,16,7.9,15
2017/11/11 9:31,3.3,15,3.4,16,7.1,9
2017/11/11 9:32,3.3,16,3.4,16,6.3,9
2017/11/11 9:33,3.3,16,3.3,16,3.3,9
2017/11/11 9:34,3.3,16,3.3,16,3,11
2017/11/11 9:35,3,15,3.2,16,2,10
2017/11/11 9:36,2.6,12,2.9,16,3,9
2017/11/11 9:37,2.5,12,2.6,16,3.6,16
2017/11/11 9:38,2.5,12,2.5,16,7,16
2017/11/11 9:39,2.1,12,2.5,16,6.7,16
2017/11/11 9:40,1.8,12,2,16,2.2,16
2017/11/11 9:41,1.7,12,1.8,15,2.7,7
2017/11/11 9:42,1.6,11,1.6,16,2.2,4
2017/11/11 9:43,1.6,12,1.6,16,4.7,3
2017/11/11 9:44,1.6,13,1.7,16,4.9,6
2017/11/11 9:45,1.7,4,1.7,15,2.9,4
2017/11/11 9:46,1.9,3,1.9,12,5.4,11
2017/11/11 9:47,2.2,6,2.2,12,9.3,11
2017/11/11 9:48,2.2,8,2.3,12,7.5,12
2017/11/11 9:49,2.3,9,2.3,7,3.8,12
2017/11/11 9:50,2.3,8,2.3,7,3.1,10
2017/11/11 9:51,2.3,9,2.3,7,1.6,11
2017/11/11 9:52,2.2,9,2.3,7,1.4,9
2017/11/11 9:53,2.3,10,2.3,7,3.7,11
2017/11/11 9:54,2.3,10,2.3,7,7.4,10
2017/11/11 9:55,2.4,10,2.4,10,5.1,2
2017/11/11 9:56,2.2,11,2.4,10,5.8,16
2017/11/11 9:57,2.1,12,2.3,10,5.1,1
2017/11/11 9:58,1.8,12,2,10,3.1,3
2017/11/11 9:59,1.7,14,1.7,10,3.5,15
2017/11/11 10:00,2,16,2,10,8.1,15
2017/11/11 10:01,2.3,16,2.3,10,7.8,16
2017/11/11 10:02,2.5,16,2.5,16,5.1,1
2017/11/11 10:03,3,16,3,16,10.3,15
2017/11/11 10:04,3,16,3.1,16,6.4,14
2017/11/11 10:05,3.1,16,3.1,16,6,14
2017/11/11 10:06,3.3,16,3.3,16,7,1
2017/11/11 10:07,3.4,16,3.4,16,7.8,15
2017/11/11 10:08,3.7,16,3.7,16,8.7,16
2017/11/11 10:09,4,1,4,1,11.7,2
2017/11/11 10:10,4.6,1,4.6,1,18.3,1
2017/11/11 10:11,4.6,1,4.7,1,10.6,1
2017/11/11 10:12,4.6,1,4.7,1,7,15
2017/11/11 10:13,4.1,1,4.6,1,5.2,16
2017/11/11 10:14,4,1,4,1,5.4,10
2017/11/11 10:15,3.9,1,4,1,4.2,2
2017/11/11 10:16,3.7,1,3.9,1,4.5,14
2017/11/11 10:17,3.7,1,3.7,1,9,3
2017/11/11 10:18,3.6,16,3.7,1,7.6,16
2017/11/11 10:19,3.5,16,3.6,1,5.7,15
2017/11/11 10:20,2.7,16,3.5,1,4.7,16
2017/11/11 10:21,2.5,16,2.6,1,4.8,15
2017/11/11 10:22,2.5,16,2.5,1,4.8,2
2017/11/11 10:23,2.7,16,2.7,1,7.6,2
2017/11/11 10:24,3.2,16,3.2,1,14.3,16
2017/11/11 10:25,3.8,16,3.8,1,11.5,16
2017/11/11 10:26,4.2,16,4.2,16,10.1,16
2017/11/11 10:27,4.3,16,4.3,16,8.9,1
2017/11/11 10:28,4.5,16,4.5,16,8.7,15
2017/11/11 10:29,4.8,16,4.8,16,10.2,16
2017/11/11 10:30,4.8,16,4.8,16,5.8,1
2017/11/11 10:31,4.8,16,4.9,16,6.3,2
2017/11/11 10:32,4.8,16,4.9,16,4.7,1
2017/11/11 10:33,5.1,16,5.1,16,9.5,16
2017/11/11 10:34,4.7,16,5.2,16,7.6,15
2017/11/11 10:35,4.1,16,4.7,16,3.3,15
2017/11/11 10:36,3.7,16,4,16,6.7,2
2017/11/11 10:37,3.7,16,3.7,16,12.1,15
2017/11/11 10:38,3.6,16,3.7,16,7.6,14
2017/11/11 10:39,3.1,16,3.5,16,4.5,10
2017/11/11 10:40,3,16,3.1,16,3.8,4
2017/11/11 10:41,3.2,16,3.2,16,9,3
2017/11/11 10:42,3.2,16,3.2,16,3.6,13
2017/11/11 10:43,2.9,15,3.1,16,4.4,11
2017/11/11 10:44,2.8,14,2.8,16,4.3,13
2017/11/11 10:45,2.8,14,2.8,16,2.2,9
2017/11/11 10:46,2.7,14,2.8,16,1.5,4
2017/11/11 10:47,2.4,14,2.6,16,4.7,1
2017/11/11 10:48,2.1,8,2.4,16,2.6,5
2017/11/11 10:49,2.2,3,2.2,16,6.1,1
2017/11/11 10:50,2.2,2,2.2,16,3.2,4